Sanford, ME

6:38 PM EDT on September 25, 2017 (GMT -0400)
Sanford Regional

Weather History for KSFM - January, 2014

Change the Weather History Date:

Monday, January 6, 2014

  Actual Average Record
Temperature  
Mean Temperature 38 °F -  
Max Temperature 50 °F 30 °F 66 °F (2007)
Min Temperature 26 °F 13 °F -7 °F (1999)
Degree Days  
Heating Degree Days 27    
Moisture  
Dew Point 33 °F    
Average Humidity 82    
Maximum Humidity 100    
Minimum Humidity 51    
Precipitation  
Precipitation 0.64 in - - ()
Sea Level Pressure  
Sea Level Pressure 29.47 in    
Wind  
Wind Speed 8 mph (WSW)    
Max Wind Speed 17 mph    
Max Gust Speed 26 mph    
Visibility 5 miles    
Events      
Averages and records for this station are not official NWS values.
T = Trace of Precipitation, MM = Missing Value Source: NWS Daily Summary

Daily Weather History Graph

Daily Weather History Graph

Search for Another Location

Airport or City:

Trip Planner

Search our weather history database for the weather conditions in past years. The results will help you decide how hot, cold, wet, or windy it might be!

Date:

Astronomy

Jan. 06, 2014 Rise Set
Actual Time 7:15 AM EST 4:22 PM EST
Civil Twilight 6:43 AM EST 4:54 PM EST
Nautical Twilight 6:07 AM EST 5:30 PM EST
Astronomical Twilight 5:32 AM EST 6:04 PM EST
Moon 10:17 AM EST (1/6) 11:04 PM EST (1/6)
Length of Visible Light 10h 11m
Length of Day
9h 07m
Waxing Crescent, 34% of the Moon is Illuminated
Jan 6
Waxing Crescent
Jan 7
First Quarter
Jan 15
Full
Jan 24
Last Quarter
Jan 30
New

Hourly Weather History & Observations

Time (EST) Temp. Windchill Dew Point Humidity Pressure Visibility Wind Dir Wind Speed Gust Speed Precip Events Conditions
12:15 AM 30.2 °F 21.3 °F 26.6 °F 86% 29.98 in 1.5 mi NE 10.4 mph - N/A   Overcast
12:35 AM 30.2 °F 21.9 °F 28.4 °F 93% 29.96 in 2.0 mi NE 9.2 mph - N/A   Overcast
12:55 AM 30.2 °F 22.6 °F 30.2 °F 100% 29.94 in 2.0 mi NNE 8.1 mph - 0.02 in   Overcast
1:15 AM 30.2 °F 21.9 °F 30.2 °F 100% 29.92 in 2.0 mi NNE 9.2 mph - 0.03 in   Overcast
1:35 AM 32.0 °F 25.6 °F 30.2 °F 93% 29.90 in 2.5 mi NNE 6.9 mph - 0.07 in   Overcast
1:55 AM 32.0 °F 24.8 °F 30.2 °F 93% 29.88 in 3.0 mi NNE 8.1 mph - 0.10 in   Overcast
2:15 AM 32.0 °F 26.4 °F 30.2 °F 93% 29.86 in 2.5 mi North 5.8 mph - 0.04 in   Overcast
2:35 AM 32.0 °F 26.4 °F 30.2 °F 93% 29.84 in 2.0 mi North 5.8 mph - 0.06 in   Overcast
2:55 AM 33.8 °F 29.6 °F 30.2 °F 87% 29.83 in 2.0 mi NNW 4.6 mph - 0.07 in   Overcast
3:15 AM 32.0 °F 26.4 °F 30.2 °F 93% 29.80 in 2.5 mi North 5.8 mph - 0.03 in   Overcast
3:35 AM 32.0 °F - 32.0 °F 100% 29.78 in 1.8 mi Calm Calm - 0.05 in   Overcast
3:55 AM 33.8 °F 28.6 °F 28.4 °F 81% 29.74 in 1.5 mi NE 5.8 mph - 0.08 in   Overcast
4:15 AM 32.0 °F 27.5 °F 28.4 °F 87% 29.72 in 1.5 mi NE 4.6 mph - 0.02 in   Overcast
4:35 AM 32.0 °F - 28.4 °F 87% 29.70 in 1.2 mi Calm Calm - 0.04 in   Overcast
4:55 AM 32.0 °F - 30.2 °F 93% 29.68 in 1.2 mi Calm Calm - 0.04 in   Overcast
5:15 AM 32.0 °F 28.7 °F 30.2 °F 93% 29.66 in 1.0 mi NE 3.5 mph - N/A   Overcast
5:35 AM 32.0 °F 27.5 °F 30.2 °F 93% 29.64 in 0.8 mi NNE 4.6 mph - N/A   Overcast
5:55 AM 33.8 °F - 28.4 °F 81% 29.62 in 0.5 mi Calm Calm - 0.04 in   Overcast
6:15 AM 33.8 °F - 32.0 °F 93% 29.60 in 4.0 mi Calm Calm - 0.06 in   Overcast
6:35 AM 33.8 °F - 28.4 °F 81% 29.59 in 3.0 mi Calm Calm - 0.06 in   Overcast
6:55 AM 33.8 °F - 30.2 °F 87% 29.58 in 3.0 mi Calm Calm - 0.07 in   Overcast
7:15 AM 33.8 °F 30.8 °F 30.2 °F 87% 29.57 in 0.8 mi NE 3.5 mph - N/A   Overcast
7:35 AM 39.2 °F 33.6 °F 37.4 °F 93% 29.55 in 0.2 mi SSW 8.1 mph - 0.01 in   Overcast
7:55 AM 48.2 °F - 46.4 °F 93% 29.53 in 2.0 mi South 6.9 mph - 0.02 in   Overcast
8:15 AM 48.2 °F - 46.4 °F 93% 29.52 in 0.5 mi South 8.1 mph - N/A   Overcast
8:35 AM 48.2 °F - 46.4 °F 93% 29.50 in 0.2 mi South 11.5 mph - N/A   Overcast
8:55 AM 48.2 °F - 46.4 °F 93% 29.49 in 0.2 mi South 9.2 mph - N/A   Overcast
9:15 AM 50.0 °F - 48.2 °F 94% 29.47 in 0.2 mi South 11.5 mph 19.6 mph N/A   Overcast
9:35 AM 50.0 °F - 46.4 °F 87% 29.45 in 0.2 mi SSE 11.5 mph 20.7 mph N/A   Overcast
9:55 AM 50.0 °F - 48.2 °F 94% 29.44 in 0.2 mi SSE 11.5 mph 18.4 mph N/A   Overcast
10:15 AM 50.0 °F - 46.4 °F 87% 29.41 in 0.2 mi SSE 8.1 mph 18.4 mph N/A   Overcast
10:35 AM 50.0 °F - 48.2 °F 94% 29.40 in 0.5 mi South 13.8 mph 23.0 mph 0.03 in   Overcast
10:55 AM 50.0 °F - 46.4 °F 87% 29.37 in 0.5 mi South 11.5 mph 19.6 mph 0.03 in   Overcast
11:15 AM 48.2 °F - 46.4 °F 93% 29.34 in 2.5 mi South 10.4 mph 19.6 mph 0.06 in   Overcast
11:35 AM 50.0 °F - 46.4 °F 87% 29.31 in 3.0 mi SSE 9.2 mph 18.4 mph 0.10 in   Overcast
11:55 AM 50.0 °F - 48.2 °F 94% 29.28 in 0.5 mi South 15.0 mph 23.0 mph 0.10 in   Overcast
12:15 PM 50.0 °F - 46.4 °F 87% 29.27 in 0.2 mi South 13.8 mph 20.7 mph N/A   Overcast
12:35 PM 50.0 °F - 48.2 °F 94% 29.27 in 0.2 mi South 11.5 mph 20.7 mph N/A   Overcast
12:55 PM 48.2 °F - 46.4 °F 93% 29.31 in 0.8 mi West 15.0 mph 26.5 mph 0.02 in   Overcast
1:15 PM 46.4 °F 44.3 °F 42.8 °F 87% 29.28 in 10.0 mi South 4.6 mph - 0.01 in   Overcast
1:35 PM 48.2 °F - 46.4 °F 93% 29.24 in 4.0 mi Calm Calm - 0.01 in   Mostly Cloudy
1:55 PM 48.2 °F - 46.4 °F 93% 29.24 in 0.5 mi West 3.5 mph - 0.01 in   Overcast
2:15 PM 46.4 °F 42.4 °F 44.6 °F 93% 29.25 in 0.5 mi SW 8.1 mph - N/A   Overcast
2:35 PM 44.6 °F 41.4 °F 42.8 °F 93% 29.26 in 10.0 mi West 5.8 mph - N/A   Overcast
2:55 PM 44.6 °F 38.8 °F 41.0 °F 87% 29.27 in 7.0 mi West 11.5 mph - N/A   Overcast
3:15 PM 44.6 °F 37.4 °F 39.2 °F 81% 29.28 in 10.0 mi West 16.1 mph 25.3 mph 0.01 in   Overcast
3:35 PM 42.8 °F 35.4 °F 37.4 °F 81% 29.29 in 10.0 mi WSW 15.0 mph 21.9 mph 0.02 in   Overcast
3:55 PM 41.0 °F 34.3 °F 37.4 °F 87% 29.29 in 10.0 mi West 11.5 mph - 0.03 in   Overcast
4:15 PM 41.0 °F 34.7 °F 35.6 °F 81% 29.27 in 10.0 mi West 10.4 mph - 0.01 in   Mostly Cloudy
4:35 PM 39.2 °F 32.5 °F 35.6 °F 87% 29.24 in 10.0 mi West 10.4 mph - 0.01 in   Scattered Clouds
4:55 PM 39.2 °F 32.0 °F 35.6 °F 87% 29.27 in 10.0 mi West 11.5 mph 21.9 mph 0.01 in   Mostly Cloudy
5:15 PM 39.2 °F 31.2 °F 33.8 °F 81% 29.27 in 10.0 mi West 13.8 mph - N/A   Mostly Cloudy
5:35 PM 39.2 °F 31.2 °F 33.8 °F 81% 29.29 in 10.0 mi West 13.8 mph 18.4 mph N/A   Overcast
5:55 PM 37.4 °F 29.3 °F 30.2 °F 75% 29.30 in 10.0 mi West 12.7 mph 19.6 mph N/A   Overcast
6:15 PM 37.4 °F 32.8 °F 30.2 °F 75% 29.31 in 10.0 mi West 5.8 mph - N/A   Overcast
6:35 PM 37.4 °F 30.3 °F 30.2 °F 75% 29.31 in 10.0 mi West 10.4 mph 16.1 mph N/A   Overcast
6:55 PM 35.6 °F 27.5 °F 28.4 °F 75% 29.31 in 10.0 mi West 11.5 mph - N/A   Overcast
7:15 PM 35.6 °F 26.2 °F 24.8 °F 65% 29.31 in 10.0 mi West 15.0 mph - N/A   Overcast
7:35 PM 33.8 °F 25.3 °F 23.0 °F 65% 29.33 in 10.0 mi West 11.5 mph 19.6 mph N/A   Overcast
7:55 PM 33.8 °F 24.8 °F 19.4 °F 56% 29.34 in 10.0 mi West 12.7 mph 20.7 mph N/A   Mostly Cloudy
8:15 PM 32.0 °F 23.6 °F 21.2 °F 64% 29.34 in 10.0 mi West 10.4 mph 20.7 mph N/A   Clear
8:35 PM 30.2 °F 21.3 °F 21.2 °F 69% 29.34 in 10.0 mi West 10.4 mph 17.3 mph N/A   Clear
8:55 PM 30.2 °F 20.8 °F 17.6 °F 60% 29.34 in 10.0 mi West 11.5 mph - N/A   Clear
9:15 PM 30.2 °F 20.8 °F 17.6 °F 60% 29.35 in 10.0 mi West 11.5 mph 20.7 mph N/A   Clear
9:35 PM 30.2 °F 23.4 °F 15.8 °F 55% 29.36 in 10.0 mi West 6.9 mph 16.1 mph N/A   Clear
9:55 PM 30.2 °F 19.3 °F 17.6 °F 60% 29.36 in 10.0 mi West 15.0 mph 20.7 mph N/A   Clear
10:15 PM 28.4 °F 18.5 °F 15.8 °F 59% 29.37 in 10.0 mi West 11.5 mph 17.3 mph N/A   Clear
10:35 PM 28.4 °F 16.6 °F 12.2 °F 51% 29.37 in 10.0 mi West 16.1 mph 21.9 mph N/A   Clear
10:55 PM 28.4 °F 17.5 °F 14.0 °F 55% 29.38 in 10.0 mi West 13.8 mph - N/A   Clear
11:15 PM 26.6 °F 13.8 °F 12.2 °F 55% 29.39 in 10.0 mi West 17.3 mph 21.9 mph N/A   Clear
11:35 PM 26.6 °F 16.2 °F 10.4 °F 51% 29.39 in 10.0 mi West 11.5 mph 20.7 mph N/A   Clear
11:55 PM 26.6 °F 16.8 °F 10.4 °F 51% 29.40 in 10.0 mi West 10.4 mph - N/A   Partly Cloudy